OK1FET-15 Weather Reports


time (UTC)temp
F
wind
direction
speed
knots
gust
knots
rain 1hr
in
rain 24hr
in
rain mn
in
humidity
%
barometer
mb
20260507141336 63 273 0.9 3.5 0.00 0.00 0.00 83 1012.8
20260507140811 64 42 0.9 3.5 0.00 0.00 0.00 92 1012.7
20260507140138 66 125 0.0 0.9 0.00 0.00 0.00 93 1012.8
20260507135604 66 38 0.9 1.7 0.00 0.00 0.00 91 1012.7
20260507135008 64 177 0.9 3.5 0.00 0.00 0.00 82 1012.8
20260507134443 64 164 0.0 0.9 0.00 0.00 0.00 75 1012.9
20260507133935 64 207 0.9 2.6 0.00 0.00 0.00 80 1012.9
20260507133428 65 226 0.9 3.5 0.00 0.00 0.00 88 1013.0
20260507130709 66 221 0.9 1.7 0.00 0.00 0.00 75 1012.9
20260507125247 66 113 0.0 1.7 0.00 0.00 0.00 94 1012.9
20260507124601 66 182 0.0 0.0 0.00 0.00 0.00 83 1012.8
20260507123812 66 72 0.9 5.2 0.00 0.00 0.00 95 1012.9
20260507123247 66 148 0.0 0.9 0.00 0.00 0.00 87 1012.9
20260507122111 68 202 0.9 3.5 0.00 0.00 0.00 97 1012.8
20260507121546 68 31 0.9 1.7 0.00 0.00 0.00 96 1012.8
20260507121038 66 223 0.9 2.6 0.00 0.00 0.00 97 1012.7
20260507113256 69 47 0.9 3.5 0.00 0.00 0.00 91 1012.7
20260507112440 70 186 1.7 7.0 0.00 0.00 0.00 68 1012.8
20260507111915 70 125 0.9 5.2 0.00 0.00 0.00 70 1012.7
20260507110233 70 182 0.9 5.2 0.00 0.00 0.00 72 1012.7
20260507103942 71 260 0.9 8.7 0.00 0.00 0.00 68 1012.7
20260507101027 74 205 0.0 1.7 0.00 0.00 0.00 86 1012.5
20260507085115 65 215 0.9 1.7 0.00 0.00 0.00 92 1011.9
20260507081233 67 225 1.7 7.0 0.00 0.00 0.00 100 1011.5
20260507062747 56 182 0.0 0.0 0.00 0.00 0.00 100 1011.2
20260507062240 55 217 0.0 0.9 0.00 0.00 0.00 100 1011.1
20260507061733 55 185 0.0 0.9 0.00 0.00 0.00 100 1011.1
20260507061225 55 173 0.9 3.5 0.00 0.00 0.00 100 1011.2
20260507060718 55 227 0.0 1.7 0.00 0.00 0.00 100 1011.1
20260507060211 54 213 0.0 0.9 0.00 0.00 0.00 100 1011.1
20260507055704 53 204 0.0 0.0 0.00 0.00 0.00 100 1011.0
20260507055157 52 187 0.0 1.7 0.00 0.00 0.00 100 1010.9
20260507054650 51 216 0.0 0.0 0.00 0.00 0.00 100 1010.9
20260507054143 51 148 0.0 0.9 0.00 0.00 0.00 100 1010.8
20260507053636 50 200 0.0 0.0 0.00 0.00 0.00 100 1010.7
20260507053129 50 193 0.0 0.0 0.00 0.00 0.00 100 1010.7
20260507052622 49 215 0.0 0.0 0.00 0.00 0.00 100 1010.7
20260507052115 49 193 0.0 0.0 0.00 0.00 0.00 100 1010.6
20260507051608 48 184 0.0 0.0 0.00 0.00 0.00 100 1010.5
20260507051101 48 194 0.0 0.0 0.00 0.00 0.00 100 1010.5
20260507050554 48 181 0.0 0.0 0.00 0.00 0.00 100 1010.4
20260507050047 48 193 0.0 0.0 0.00 0.00 0.00 100 1010.4
20260507045540 47 180 0.0 0.0 0.00 0.00 0.00 100 1010.3
20260507045033 47 212 0.0 0.0 0.00 0.00 0.00 100 1010.2
20260507044526 47 225 0.0 0.0 0.00 0.00 0.00 100 1010.0
20260507044019 47 225 0.0 0.0 0.00 0.00 0.00 100 1010.0
20260507043512 46 225 0.0 0.0 0.00 0.00 0.00 100 1009.9
20260507043005 46 225 0.0 0.0 0.00 0.00 0.00 100 1009.8
20260507042459 45 210 0.0 0.0 0.00 0.00 0.00 100 1009.8
20260507041952 45 209 0.0 0.0 0.00 0.00 0.00 100 1009.7
20260507041445 45 180 0.0 0.0 0.00 0.00 0.00 100 1009.7
20260507040938 45 180 0.0 0.0 0.00 0.00 0.00 100 1009.6
20260507040431 45 180 0.0 0.0 0.00 0.00 0.00 100 1009.6
20260507035924 45 193 0.0 0.0 0.00 0.00 0.00 100 1009.5
20260507035417 45 177 0.0 0.0 0.00 0.00 0.00 100 1009.5
20260507034911 45 229 0.0 0.0 0.00 0.00 0.00 100 1009.3
20260507034404 45 230 0.0 0.0 0.00 0.00 0.00 100 1009.3
20260507033857 45 217 0.0 0.0 0.00 0.00 0.00 100 1009.3
20260507033350 45 228 0.0 0.0 0.00 0.00 0.00 100 1009.2
20260507032843 45 173 0.0 0.0 0.00 0.00 0.00 100 1009.2
20260507032336 45 135 0.0 0.0 0.00 0.00 0.00 100 1009.3
20260507031829 45 139 0.0 0.0 0.00 0.00 0.00 100 1009.3
20260507031322 45 218 0.0 0.0 0.00 0.00 0.00 100 1009.2
20260507030816 45 266 0.0 0.0 0.00 0.00 0.00 100 1009.2
20260507030309 45 180 0.0 0.0 0.00 0.00 0.00 100 1009.2
20260507025802 45 180 0.0 0.0 0.00 0.00 0.00 100 1009.1
20260507025255 45 180 0.0 0.0 0.00 0.00 0.00 100 1009.0
20260507024748 45 180 0.0 0.0 0.00 0.00 0.00 100 1009.0
20260507024241 46 180 0.0 0.0 0.00 0.00 0.00 100 1009.0
20260507023734 46 180 0.0 0.0 0.00 0.00 0.00 100 1008.9
20260507023227 46 180 0.0 0.0 0.00 0.00 0.00 100 1008.9
20260507022721 46 183 0.0 0.0 0.00 0.00 0.00 100 1008.9
20260507022214 46 225 0.0 0.0 0.00 0.00 0.00 100 1008.8
20260507021707 46 180 0.0 0.0 0.00 0.00 0.00 100 1008.7
20260507021200 46 180 0.0 0.0 0.00 0.00 0.00 100 1008.7
20260507020653 46 203 0.0 0.0 0.00 0.00 0.00 100 1008.7
20260507020146 46 225 0.0 0.0 0.00 0.00 0.00 100 1008.8
20260507015639 47 222 0.0 0.0 0.00 0.00 0.00 100 1008.8
20260507015132 47 222 0.0 0.0 0.00 0.00 0.00 100 1008.8
20260507014625 47 270 0.0 0.0 0.00 0.00 0.00 100 1008.8
20260507014118 47 270 0.0 0.0 0.00 0.00 0.00 100 1008.7
20260507013611 47 270 0.0 0.0 0.00 0.00 0.00 100 1008.6
20260507013105 47 270 0.0 0.0 0.00 0.00 0.00 100 1008.7
20260507012558 48 270 0.0 0.0 0.00 0.00 0.00 100 1008.7
20260507012051 48 270 0.0 0.0 0.00 0.00 0.00 100 1008.7
20260507011544 48 244 0.0 0.0 0.00 0.00 0.00 100 1008.7
20260507011037 48 225 0.0 0.0 0.00 0.00 0.00 100 1008.8
20260507010530 48 225 0.0 0.0 0.00 0.00 0.00 100 1008.7
20260507010023 48 225 0.0 0.0 0.00 0.00 0.00 100 1008.5
20260507005516 48 193 0.0 0.0 0.00 0.00 0.00 100 1008.4
20260507005009 48 170 0.0 0.0 0.00 0.00 0.00 100 1008.3
20260507004502 48 180 0.0 0.0 0.00 0.00 0.00 100 1008.3
20260507003955 49 97 0.0 0.0 0.00 0.00 0.00 100 1008.1
20260507003448 49 97 0.0 0.0 0.00 0.00 0.00 100 1008.2
20260507002941 49 187 0.0 0.0 0.00 0.00 0.00 100 1008.2
20260507002434 50 154 0.0 0.0 0.00 0.00 0.00 100 1008.2
20260507001927 50 163 0.0 0.0 0.00 0.00 0.00 100 1008.2
20260507001420 50 171 0.0 3.5 0.00 0.00 0.00 100 1008.3
20260507000913 50 176 0.0 0.0 0.00 0.00 0.00 100 1008.4
20260507000406 50 165 0.0 2.6 0.00 0.00 0.00 100 1008.3
20260506235859 50 223 0.9 2.6 0.00 0.00 0.00 100 1008.3
20260506235352 50 144 0.0 0.0 0.00 0.00 0.00 100 1008.2
20260506234845 50 168 0.0 0.0 0.00 0.00 0.00 100 1008.1
20260506234338 50 180 0.0 0.0 0.00 0.00 0.00 100 1008.1
20260506233831 50 180 0.0 0.0 0.00 0.00 0.00 100 1008.1
20260506233324 50 180 0.0 0.0 0.00 0.00 0.00 100 1008.0
20260506232817 50 180 0.0 0.0 0.00 0.00 0.00 100 1008.0
20260506232310 50 180 0.0 0.0 0.00 0.00 0.00 100 1008.0
20260506231803 50 180 0.0 0.0 0.00 0.00 0.00 100 1007.9
20260506231256 50 180 0.0 0.0 0.00 0.00 0.00 100 1007.9
20260506230749 51 180 0.0 0.0 0.00 0.00 0.00 100 1007.9
20260506230241 51 204 0.0 0.0 0.00 0.00 0.00 100 1007.8
20260506225734 51 180 0.0 0.0 0.00 0.00 0.00 100 1007.7
20260506225227 51 180 0.0 0.0 0.00 0.00 0.00 100 1007.6
20260506224721 51 218 0.0 0.0 0.00 0.00 0.00 100 1007.5
20260506224213 51 225 0.0 0.0 0.00 0.00 0.00 100 1007.5
20260506223706 51 225 0.0 0.0 0.00 0.00 0.00 100 1007.5
20260506223159 51 222 0.0 0.0 0.00 0.00 0.00 100 1007.4
20260506222652 52 228 0.0 0.0 0.00 0.00 0.00 100 1007.4
20260506222145 52 300 0.0 0.0 0.00 0.00 0.00 100 1007.3
20260506221638 52 225 0.0 0.0 0.00 0.00 0.00 100 1007.4
20260506221131 52 220 0.0 0.0 0.00 0.00 0.00 100 1007.4
20260506220624 52 174 0.0 0.0 0.00 0.00 0.00 100 1007.3
20260506220117 52 229 0.0 0.0 0.00 0.00 0.00 100 1007.5
20260506215610 52 199 0.0 0.0 0.00 0.00 0.00 100 1007.4
20260506215102 51 237 0.9 1.7 0.00 0.00 0.00 100 1007.2
20260506214555 51 225 0.0 0.0 0.00 0.00 0.00 100 1007.1
20260506214048 52 225 0.0 0.0 0.00 0.00 0.00 100 1006.9
20260506213541 52 225 0.0 0.0 0.00 0.00 0.00 100 1006.6
20260506213034 52 215 0.0 0.0 0.00 0.00 0.00 100 1006.5
20260506212527 52 180 0.0 0.0 0.00 0.00 0.00 100 1006.5
20260506212020 52 180 0.0 0.0 0.00 0.00 0.00 100 1006.5
20260506211513 52 207 0.0 0.0 0.00 0.00 0.00 100 1006.4
20260506211006 52 198 0.0 0.0 0.00 0.00 0.00 100 1006.4
20260506210459 52 296 0.9 4.3 0.00 0.00 0.00 100 1006.4
20260506205952 52 225 0.0 0.0 0.00 0.00 0.00 100 1006.5
20260506205445 52 225 0.0 0.0 0.00 0.00 0.00 100 1006.4
20260506204937 52 316 0.0 0.0 0.00 0.00 0.00 100 1005.8
20260506204430 52 310 0.0 0.0 0.00 0.00 0.00 100 1005.5
20260506203923 52 182 0.0 0.0 0.00 0.00 0.00 100 1005.9
20260506203416 53 228 0.0 0.0 0.00 0.00 0.00 100 1006.0
20260506202909 53 341 0.0 0.0 0.00 0.00 0.00 100 1006.0
20260506202402 53 236 0.0 0.0 0.00 0.00 0.00 100 1006.0